x

9439040 - Astoria, Or (asto3) Weather Station

2:54 - Sun 26th Mar 2017 All times are PDT. -7 hours from GMT.

  • Wind
    3mph, 6mph gusts
  • Sea Temp 47°f
  • Aire Temp 46°f
  • Sea Pressure 1006.2mb
  • 9439040 - Astoria, Or
  • 9439040 - Astoria, Or

More Historic Weather Station data

Upgrade to MSW Pro to gain access to the past 30 days of data for over 8000 Wavebouys and Weather Stations around the globe.

Join Pro

Comparision Forecast

View Surf forecast
   
dom 03/26 2:54 3 6 mph 1006.2mb 47f 46f
2:48 3 6 mph 1006.2mb 46f 47f
2:42 3 7 mph 1006.1mb 46f 46f
2:36 5 8 mph 1006.2mb 46f 46f
2:30 3 8 mph 1006.2mb 46f 46f
2:24 6 7 mph 1006.3mb 47f 46f
2:18 2 5 mph 1006.4mb 47f 46f
2:12 2 6 mph 1006.5mb 47f 46f
2:06 3 6 mph 1006.4mb 47f 46f
2:00 2 8 mph 1006.5mb 47f 46f
1:54 2 7 mph 1006.5mb 47f 46f
1:48 3 8 mph 1006.5mb 47f 46f
1:42 2 6 mph 1006.5mb 47f 46f
1:36 2 5 mph 1006.5mb 47f 46f
1:30 2 5 mph 1006.5mb 47f 45f
1:24 2 7 mph 1006.5mb 47f 45f
1:18 2 7 mph 1006.5mb 46f 45f
1:12 5 9 mph 1006.5mb 46f 46f
1:06 8 11 mph 1006.6mb 46f 45f
1:00 3 6 mph 1006.6mb 46f 45f
12:54 3 7 mph 1006.6mb 46f 45f
12:48 1 5 mph 1006.6mb 47f 45f
12:42 2 7 mph 1006.7mb 47f 45f
12:36 2 8 mph 1006.7mb 47f 45f
12:30 3 8 mph 1006.8mb 47f 45f
12:24 3 6 mph 1006.8mb 47f 45f
12:18  -  6 mph 1006.9mb 47f 45f
12:12 2 6 mph 1006.9mb 47f 44f
12:06 5 9 mph 1007mb 47f 44f
12:00  -  6 mph 1007mb 47f 44f
11:54 2 7 mph 1007.1mb 47f 44f
11:48 3 6 mph 1007mb 47f 44f
11:42 2 9 mph 1007.1mb 47f 44f
11:36 3 13 mph 1007.1mb 47f 44f
11:30 3 7 mph 1007.1mb 47f 44f
11:24 5 10 mph 1007.1mb 47f 44f
11:18 6 13 mph 1007.1mb 47f 44f
11:12 5 7 mph 1007.2mb 47f 44f
11:06 3 8 mph 1007.2mb 47f 44f
11:00 2 6 mph 1007.1mb 47f 44f
10:54 2 9 mph 1007.1mb 47f 44f
10:48 5 9 mph 1007.1mb 47f 44f
10:42 6 11 mph 1007.1mb 47f 44f
10:36 10 18 mph 1007.1mb 47f 44f
10:30 8 13 mph 1007.1mb 47f 44f
10:24 5 9 mph 1007.2mb 47f 44f
10:18 2 10 mph 1007.2mb 47f 44f
10:12 7 10 mph 1007.1mb 47f 44f
10:06 3 16 mph 1007.2mb 47f 44f
10:00 6 14 mph 1007.2mb 47f 44f
9:54 6 10 mph 1007.2mb 47f 44f
9:48 1 7 mph 1007.4mb 47f 44f
9:42 3 6 mph 1007.3mb 47f 44f
9:36 3 7 mph 1007.4mb 47f 44f
9:30 7 14 mph 1007.6mb 47f 44f
9:24 3 14 mph 1007.8mb 47f 44f
9:18 3 11 mph 1007.8mb 47f 44f
9:12 7 13 mph 1007.9mb 47f 44f
9:06 3 8 mph 1007.9mb 47f 44f
9:00 3 6 mph 1008.1mb 47f 44f
8:54 3 8 mph 1008.2mb 47f 44f
8:48 2 5 mph 1008.3mb 47f 44f
8:42  -  6 mph 1008.4mb 47f 44f
8:36 1 3 mph 1008.6mb 47f 44f
8:30  -  3 mph 1008.7mb 47f 44f
8:24 1 5 mph 1008.8mb 47f 44f
8:18 3 6 mph 1008.9mb 46f 44f
8:12 1 3 mph 1009mb 46f 44f
8:06 2 6 mph 1009.1mb 46f 44f
8:00 2 3 mph 1009.2mb 46f 43f
7:54 2 3 mph 1009.3mb 46f 43f
7:48 1 5 mph 1009.3mb 46f 44f
7:42 1 5 mph 1009.4mb 46f 44f
7:36 2 3 mph 1009.4mb 46f 44f
7:30 2 6 mph 1009.4mb 46f 44f
7:24 2 5 mph 1009.4mb 46f 43f
7:18 2 7 mph 1009.4mb 46f 44f
7:12 1 2 mph 1009.5mb 46f 44f
7:06  -  7 mph 1009.6mb 46f 44f
7:00 5 8 mph 1009.7mb 46f 44f
6:54 5 7 mph 1009.7mb 46f 44f
6:48 3 7 mph 1009.8mb 46f 44f
6:42 2 3 mph 1009.8mb 46f 44f
6:36 1 6 mph 1009.8mb 46f 44f
6:30 1 6 mph 1009.9mb 46f 44f
6:24 5 7 mph 1009.9mb 46f 44f
6:18 2 6 mph 1010mb 46f 44f
6:12 5 8 mph 1010.1mb 46f 44f
6:06 2 5 mph 1010.3mb 46f 44f
6:00 1 5 mph 1010.3mb 46f 44f
5:54 2 5 mph 1010.5mb 46f 44f
5:48 2 5 mph 1010.5mb 46f 44f
5:42 3 5 mph 1010.6mb 46f 44f
5:36 2 6 mph 1010.6mb 46f 44f
5:30 2 6 mph 1010.6mb 46f 44f
5:24 3 6 mph 1010.6mb 47f 44f
5:18 2 5 mph 1010.7mb 47f 44f
5:12  -  2 mph 1010.7mb 47f 44f
5:06  -  2 mph 1010.8mb 47f 44f
5:00 2 3 mph 1010.9mb 46f 44f
4:54 1 5 mph 1011.1mb 46f 44f
4:48 2 6 mph 1011.2mb 46f 44f
4:42  -  2 mph 1011.2mb 46f 44f
4:36 1 2 mph 1011.4mb 46f 43f
4:30 1
mph
1011.5mb 46f 44f
4:24 1 3 mph 1011.7mb 46f 44f
4:18 1 2 mph 1011.9mb 46f 44f
4:12 2 7 mph 1011.9mb 46f 44f
4:06 2 3 mph 1012.2mb 47f 44f
4:00 1 2 mph 1012.2mb 47f 44f
3:54  -  2 mph 1012.3mb 47f 44f
3:48 1 2 mph 1012.4mb 47f 44f
3:42  -  2 mph 1012.6mb 47f 44f
3:36 2 6 mph 1012.7mb 47f 44f
3:30 5 6 mph 1012.9mb 47f 44f
3:24 3 5 mph 1012.9mb 47f 44f
3:18 1 5 mph 1013mb 47f 44f
3:12 3 6 mph 1013.1mb 47f 44f
3:06 3 6 mph 1013.1mb 47f 44f
3:00 3 6 mph 1013.2mb 46f 44f
2:54 2 6 mph 1013.3mb 47f 44f
2:48 2 3 mph 1013.5mb 47f 44f
2:42 2 3 mph 1013.7mb 46f 44f
2:36 2 3 mph 1013.9mb 46f 44f
2:30 2 3 mph 1013.9mb 46f 44f
2:24 2 3 mph 1014.1mb 47f 44f
2:18 2 5 mph 1014.2mb 47f 44f
2:12  -  2 mph 1014.2mb 47f 44f
2:06 1 3 mph 1014.2mb 47f 44f
2:00  -  1 mph 1014.3mb 47f 44f
1:54  -  2 mph 1014.3mb 47f 44f
1:48 1 3 mph 1014.4mb 47f 44f
1:42 2 3 mph 1014.6mb 47f 44f
1:36 3 5 mph 1014.7mb 47f 44f
1:30 2 5 mph 1014.7mb 47f 44f
1:24 2 5 mph 1014.8mb 47f 44f
1:18 1 2 mph 1014.9mb 47f 44f
1:12  -  1 mph 1014.9mb 47f 44f
1:06  -  1 mph 1015mb 47f 44f
1:00  -  2 mph 1015mb 47f 44f
12:54 1 2 mph 1015.2mb 47f 44f
12:48  -  2 mph 1015.2mb 47f 44f
12:42 1 3 mph 1015.4mb 47f 44f
12:36 2 3 mph 1015.6mb 47f 44f
12:30 1 3 mph 1015.6mb 47f 44f
12:24 2 3 mph 1015.8mb 47f 44f
12:18 1 3 mph 1015.8mb 47f 44f
12:12 2 3 mph 1015.9mb 47f 44f
12:06 3
mph
1015.8mb 47f 44f
12:00 2 3 mph 1015.7mb 47f 44f
sáb 03/25 11:54 1 2 mph 1015.9mb 47f 44f
11:48 1 5 mph 1015.9mb 47f 44f
11:42 3 5 mph 1016mb 47f 44f
11:36 3 5 mph 1016mb 47f 44f
11:30 3 6 mph 1016.1mb 47f 44f
11:24 2 5 mph 1016.2mb 47f 44f
11:18 1 5 mph 1016.3mb 47f 44f
11:12 2 3 mph 1016.4mb 47f 44f
11:06 1 2 mph 1016.5mb 47f 44f
11:00 1 3 mph 1016.5mb 47f 44f
10:54 2 3 mph 1016.6mb 47f 44f
10:48 1 2 mph 1016.6mb 47f -
10:42 1 3 mph 1016.7mb 47f -
10:36 1 2 mph 1016.8mb 47f -
10:30  -  1 mph 1016.7mb 47f 44f
10:24 1 3 mph 1016.6mb 47f 44f
10:18 1 2 mph 1016.6mb 47f 44f
10:12 1 3 mph 1016.6mb 47f 44f
10:06 2 3 mph 1016.7mb 47f 44f
10:00 2 3 mph 1016.7mb 47f 44f
9:54 1 3 mph 1016.8mb 47f 44f
9:48  -  2 mph 1016.9mb 47f 45f
9:42  -  1 mph 1017mb 47f 44f
9:36  -  1 mph 1017.1mb 47f 44f
9:30  -  2 mph 1017mb 47f 44f
9:24  -  1 mph 1017.2mb 47f 44f
9:18  -  2 mph 1017.3mb 47f 44f
9:12 1 2 mph 1017.4mb 47f 44f
9:06 1
mph
1017.6mb 47f 44f
9:00  -  2 mph 1017.6mb 47f 44f
8:54 1 2 mph 1017.7mb 47f 44f
8:48 1 2 mph 1017.7mb 47f 45f
8:42  -  2 mph 1017.7mb 47f 45f
8:36 1 2 mph 1017.8mb 47f 45f
8:30  -  2 mph 1017.8mb 47f 45f
8:24 2 3 mph 1017.8mb 47f 45f
8:18 1 2 mph 1017.8mb 47f 45f
8:12 1 2 mph 1018mb 47f 45f
8:06 1 2 mph 1018mb 47f 45f
8:00 1 2 mph 1018.1mb 47f 46f
7:54  -  2 mph 1018.2mb 47f 46f
7:48 1 3 mph 1018.2mb 47f 46f
7:42 2 3 mph 1018.2mb 47f 46f
7:36 2 3 mph 1018.3mb 47f 46f
7:30 1 2 mph 1018.4mb 47f 46f
7:24 2
mph
1018.5mb 47f 46f
7:18 1 2 mph 1018.6mb 47f 47f
7:12 1
mph
1018.6mb 47f 47f
7:06  -  mph 1018.8mb 47f 47f
7:00  -  1 mph 1018.9mb 47f 47f
6:54  -  1 mph 1018.9mb 47f 47f
6:48  -  mph 1018.8mb 47f 47f
6:42  -  1 mph 1018.8mb 47f 47f
6:36  -  2 mph 1018.7mb 47f 47f
6:30 1 2 mph 1019mb 47f 47f
6:24 1 3 mph 1018.9mb 47f 47f
6:18 2
mph
1019mb 47f 47f
6:12 2
mph
1019.2mb 47f 47f
6:06 1 3 mph 1019.3mb 47f 47f
6:00 2
mph
1019.3mb 47f 47f
5:54  -  2 mph 1019.4mb 47f 47f
5:48 2
mph
1019.4mb - 47f
5:42 1 3 mph 1019.4mb - 47f
5:36 3 5 mph 1019.6mb - 47f
5:30 3 5 mph 1019.7mb 47f 47f
5:24 3 6 mph 1019.8mb 47f 47f
5:18 3 6 mph 1019.8mb 47f 47f
5:12 5 6 mph 1019.7mb 47f 47f
5:06 3 5 mph 1019.7mb 46f 47f
5:00 2 3 mph 1019.7mb 46f 48f
4:54 2
mph
1019.7mb 46f 48f
4:48 2 3 mph 1019.8mb 46f 48f
4:42 2 5 mph 1019.9mb 46f 48f
4:36 3 6 mph 1020.1mb 46f 47f
4:30 5 7 mph 1020.2mb 46f 47f
4:24 5 7 mph 1020.2mb 46f 47f
4:18 7
mph
1020.2mb 46f 47f
4:12 6 8 mph 1020.3mb 46f 47f
4:06 6 7 mph 1020.3mb 46f 47f
4:00 6 8 mph 1020.4mb 46f 47f
3:54 6 8 mph 1020.3mb 46f 47f
3:48 6 9 mph 1020.3mb 46f 47f
3:42 7 9 mph 1020.3mb 46f 47f
3:36 8 9 mph 1020.4mb 47f 47f
3:30 7 9 mph 1020.4mb 47f 47f
3:24 8 9 mph 1020.4mb 47f 47f
3:18 9 10 mph 1020.4mb 47f 47f
3:12 7 9 mph 1020.5mb 47f 47f
3:06 6 9 mph 1020.5mb 46f 47f
3:00 8 9 mph 1020.5mb 47f 47f
2:54 5 8 mph 1020.6mb 47f 47f
2:48 6 7 mph 1020.7mb 47f 47f
2:42 7 9 mph 1020.7mb 46f 47f
2:36 7 9 mph 1020.7mb 46f 47f
2:30 6 8 mph 1020.7mb 47f 47f
2:24 6 7 mph 1020.7mb 46f 46f
2:18 6 9 mph 1020.8mb 46f 46f
2:12 7 9 mph 1020.8mb 46f 46f
2:06 5 6 mph 1020.8mb 46f 47f
2:00 5 7 mph 1020.8mb 46f 47f
1:54 5 6 mph 1020.8mb 46f 47f
1:48 6 7 mph 1020.9mb 46f 47f
1:42 7 9 mph 1020.9mb 46f 47f
1:36 6 9 mph 1021mb 46f 47f
1:30 9 13 mph 1021.1mb 46f 46f
1:24 3 6 mph 1021.1mb 46f 47f
1:18 1 2 mph 1021.1mb 46f 47f
1:12 2
mph
1021mb 46f 47f
1:06  -  3 mph 1021.1mb 46f 47f
1:00 3 5 mph 1021.1mb 46f 46f
12:54 1 3 mph 1021mb 46f 46f
12:48 2 6 mph 1020.9mb 46f 46f
12:42 2 3 mph 1021mb 46f 47f
12:36 2
mph
1021mb 46f 47f
12:30  -  2 mph 1021mb 46f 47f
12:24  -  1 mph 1021mb 46f 46f
12:18 1 3 mph 1021.1mb 46f 45f
12:12 1 3 mph 1021mb 46f 45f
12:06 2 9 mph 1021.1mb 46f 45f
12:00 5 7 mph 1021mb 46f 46f
11:54 3 6 mph 1020.9mb 46f 46f
11:48 6 7 mph 1020.9mb 46f 46f
11:42 5
mph
1020.9mb 46f 46f
11:36 3
mph
1020.9mb 46f 45f
11:30 3 5 mph 1021mb 46f 46f
11:24 3 5 mph 1021mb 46f 45f
11:18 3
mph
1021.1mb 46f 46f
11:12 2 3 mph 1021mb 46f 46f
11:06 1 2 mph 1020.9mb 46f 47f
11:00 1 2 mph 1020.8mb 46f 47f
10:54 1 2 mph 1020.8mb 46f 47f
10:48  -  2 mph 1020.8mb 46f 49f
10:42  -  3 mph 1020.7mb 46f 48f
10:36 3 5 mph 1020.8mb 46f 46f
10:30 2 5 mph 1020.8mb 46f 46f
10:24 6 8 mph 1020.7mb 46f 46f
10:18 5 7 mph 1021mb 46f 46f
10:12 3 6 mph 1020.9mb 46f 46f
10:06 3 7 mph 1020.9mb 46f 46f
10:00 6 8 mph 1020.8mb 46f 45f
9:54 5 7 mph 1020.8mb 46f 45f
9:48 5 7 mph 1020.8mb 46f 45f
9:42 2 6 mph 1020.7mb 46f 45f
9:36 5 7 mph 1020.6mb 46f 44f
9:30 5 7 mph 1020.5mb 46f 44f
9:24 5 6 mph 1020.5mb 46f 44f
9:18 2 6 mph 1020.5mb 46f 44f
9:12 5 7 mph 1020.4mb 46f 43f
9:06 5 7 mph 1020.3mb 46f 43f
9:00 6 7 mph 1020.3mb 46f 43f
8:54 6 7 mph 1020.3mb 46f 43f
8:48 2 3 mph 1020.2mb 46f 44f
8:42 2
mph
1020.4mb 46f 44f
8:36 3 5 mph 1020.4mb 46f 44f
8:30 3
mph
1020.3mb 46f 44f
8:24 1 3 mph 1020.2mb 46f 44f
8:18 3 5 mph 1020.1mb 46f 44f
8:12 3 5 mph 1020.1mb 46f 44f
8:06 3 6 mph 1020.1mb 46f 44f
8:00 5 6 mph 1020mb 46f 44f
7:54 3 7 mph 1019.9mb 46f 44f
7:48 6 8 mph 1019.9mb 46f 44f
7:42 5 7 mph 1019.8mb 46f 44f
7:36 6 7 mph 1019.8mb 46f 44f
7:30 2 7 mph 1019.7mb 46f 43f
7:24 6 9 mph 1019.8mb 46f 43f
7:18 5 8 mph 1019.8mb 46f 43f
7:12 6 8 mph 1019.7mb 46f 43f
7:06 5 8 mph 1019.6mb 46f 42f
7:00 5 8 mph 1019.7mb 46f 42f
6:54 6 7 mph 1019.7mb 46f 43f
6:48 5 8 mph 1019.7mb 46f 43f
6:42 5 7 mph 1019.6mb 46f 43f
6:36 5 8 mph 1019.6mb 46f 43f
6:30 7 8 mph 1019.5mb 46f 43f
6:24 8 10 mph 1019.6mb 46f 43f
6:18 8 10 mph 1019.5mb 46f 43f
6:12 8 10 mph 1019.5mb 46f 43f
6:06 7 8 mph 1019.6mb 46f 43f
6:00 6 8 mph 1019.5mb 46f 43f
5:54 5 7 mph 1019.4mb 46f 43f
5:48 5 6 mph 1019.4mb 46f 43f
5:42 2 3 mph 1019.4mb 46f 44f
5:36 2 3 mph 1019.4mb 46f 44f
5:30 2 3 mph 1019.3mb 46f 44f
5:24 3 5 mph 1019.2mb 46f 44f
5:18 2
mph
1019.1mb 46f 44f
5:12 1 3 mph 1019.2mb 46f 44f
5:06 3 8 mph 1019.3mb 46f 44f
5:00 8 11 mph 1019.3mb 46f 44f
4:54 7 11 mph 1019.3mb 46f 44f
4:48 5 10 mph 1019.2mb 46f 44f
4:42 7 9 mph 1019mb 46f 44f
4:36 6 9 mph 1019mb 46f 44f
4:30 7 8 mph 1018.9mb 46f 44f
4:24 7 9 mph 1018.9mb 46f 44f
4:18 7 11 mph 1018.9mb 46f 44f
4:12 7 9 mph 1018.9mb 46f 44f
4:06 6
mph
1018.9mb 46f 44f
4:00 3 7 mph 1018.9mb 46f 44f
3:54 3 5 mph 1018.9mb 46f 44f
3:48 5 6 mph 1018.9mb 46f 44f
3:42 5 6 mph 1018.9mb 46f 44f
3:36 3 5 mph 1018.9mb 46f 44f
3:30 3 5 mph 1018.8mb 46f 45f
3:24 2 5 mph 1018.9mb 46f 45f
3:18 5 6 mph 1018.9mb 46f 45f
3:12 6 7 mph 1018.9mb 46f 45f
3:06 7 9 mph 1018.9mb 46f 45f
3:00 3 6 mph 1019mb 46f 45f
2:54 3 8 mph 1018.8mb 46f 45f
2:48 5 6 mph 1018.7mb 46f 45f
2:42 3 7 mph 1018.7mb 46f 45f
2:36 5 7 mph 1018.7mb 46f 45f
2:30 5 7 mph 1018.6mb 46f 45f
2:24 6 7 mph 1018.5mb 46f 45f
2:18 5 8 mph 1018.5mb 46f 46f
2:12 3 6 mph 1018.5mb 46f 45f
2:06 5 7 mph 1018.5mb 46f 45f
2:00 5 6 mph 1018.5mb 46f 45f
1:54 6 8 mph 1018.5mb 46f 45f
1:48 6 7 mph 1018.5mb 46f 45f
1:42 5 6 mph 1018.5mb 46f 46f
1:36 5 8 mph 1018.5mb 46f 46f
1:30 5 8 mph 1018.4mb 46f 46f
1:24 5 8 mph 1018.3mb 46f 46f
1:18 5 7 mph 1018.3mb 46f 45f
1:12 5 6 mph 1018.1mb 46f 45f
1:06 3 6 mph 1018.1mb 46f 45f
1:00 3 6 mph 1018.1mb 46f 46f
12:54 5 8 mph 1018.1mb 46f 46f
12:48 5 8 mph 1018.1mb 46f 45f
12:42 8 16 mph 1018.1mb 46f 45f
12:36 7 9 mph 1018.1mb 46f 45f
12:30 7 9 mph 1018mb 46f 45f
12:24 6 11 mph 1017.9mb 46f 45f
12:18 10 23 mph 1018mb 46f 45f
12:12 6 9 mph 1018.1mb 46f 45f
12:06 7 9 mph 1017.8mb 46f 45f
12:00 7 11 mph 1017.8mb 46f 46f
vie 03/24 11:54 11 21 mph 1017.8mb 46f 46f
11:48 8 11 mph 1017.7mb 46f -
11:42 6 8 mph 1017.5mb 46f -
11:36 8 10 mph 1017.5mb 46f -
11:30 7 10 mph 1017.5mb 46f 46f
11:24 6 10 mph 1017.4mb 46f 46f
11:18 7 10 mph 1017.4mb 46f 46f
11:12 7 9 mph 1017.4mb 46f 46f
11:06 7 10 mph 1017.3mb 46f 46f
11:00 7 9 mph 1017.3mb 46f 46f
10:54 6 9 mph 1017.3mb 46f 46f
10:48 6 8 mph 1017.2mb 46f 46f
10:42 6 11 mph 1017.2mb 46f 47f
10:36 6 9 mph 1017.1mb 46f 47f
10:30 6 10 mph 1017.1mb 46f 46f
10:24 7 9 mph 1017mb 46f 46f
10:18 7 10 mph 1017mb 46f 47f
10:12 6 11 mph 1017mb 46f 47f
10:06 8 13 mph 1016.9mb 46f 47f
10:00 8 11 mph 1016.9mb 46f 46f
9:54 7 10 mph 1016.9mb 46f 46f
9:48 7 9 mph 1016.9mb 46f 47f
9:42 7 10 mph 1016.8mb 46f 47f
9:36 7 11 mph 1016.7mb 46f 47f
9:30 6 9 mph 1016.5mb 46f 47f
9:24 5 8 mph 1016.4mb 46f 47f
9:18 5 8 mph 1016.3mb 46f 47f
9:12 5 10 mph 1016.2mb 46f 47f
9:06 5 7 mph 1016.1mb 46f 47f
9:00 6 7 mph 1016.1mb 46f 47f
8:54 6 9 mph 1016mb 46f 47f
8:48 6 8 mph 1016mb 46f 47f
8:42 5 7 mph 1015.9mb 46f 47f
8:36 5 9 mph 1015.8mb 46f 47f
8:30 6 8 mph 1015.6mb 46f 47f
8:24 5 9 mph 1015.6mb 46f 47f
8:18 7 9 mph 1015.5mb 46f 47f
8:12 7 9 mph 1015.4mb 46f 47f
8:06 7 11 mph 1015.3mb 46f 47f
8:00 8 11 mph 1015.2mb 46f 47f
7:54 7 10 mph 1015.1mb 46f 47f
7:48 9 13 mph 1015.1mb 46f 47f
7:42 8 11 mph 1015mb 46f 47f
7:36 7 9 mph 1015mb 46f 47f
7:30 5 8 mph 1014.9mb 46f 47f
7:24 5 8 mph 1014.8mb 46f 47f
7:18 7 10 mph 1014.7mb 46f 47f
7:12 8 13 mph 1014.5mb 46f 47f
7:06 6 9 mph 1014.4mb 46f 47f
7:00 5 6 mph 1014.3mb 46f 47f
6:54 5 8 mph 1014.2mb 46f 47f
6:48 8 9 mph 1014.1mb 46f 47f
6:42 5 8 mph 1014.1mb 46f 47f
6:36 5 8 mph 1014mb 46f 47f
6:30 6 13 mph 1014mb 46f 48f
6:24 8 13 mph 1013.9mb 46f 48f
6:18 8 11 mph 1013.9mb 46f 48f
6:12 7 13 mph 1013.8mb 46f 48f
6:06 9 13 mph 1013.8mb 46f 48f
6:00 7 11 mph 1013.8mb 46f 47f
5:54 8 11 mph 1013.8mb 46f 47f
5:48 8 15 mph 1013.7mb 46f 47f
5:42 10 13 mph 1013.6mb 46f 47f
5:36 9 14 mph 1013.5mb 46f 47f
5:30 7 14 mph 1013.4mb 46f 48f
5:24 7 15 mph 1013.4mb 46f 48f
5:18 9 15 mph 1013.4mb 46f 48f
5:12 13 21 mph 1013.4mb 46f 47f
5:06 10 13 mph 1013.3mb 46f 47f
5:00 10 13 mph 1013.1mb 46f 48f
4:54 8 11 mph 1013mb 46f 48f
4:48 8 14 mph 1012.8mb 46f 49f
4:42 8 14 mph 1012.8mb 46f 49f
4:36 8 13 mph 1012.7mb 46f 49f
4:30 7 14 mph 1012.7mb 46f 49f
4:24 6 11 mph 1012.6mb 46f 48f
4:18 8 10 mph 1012.6mb 46f 48f
4:12 7 13 mph 1012.6mb 46f 48f
4:06 9 14 mph 1012.6mb 46f 48f
4:00 9 14 mph 1012.4mb 46f 48f
3:54 11 15 mph 1012.4mb 46f 48f
3:48 10 14 mph 1012.3mb 46f 47f
3:42 15 20 mph 1012.2mb 46f 47f
3:36 17 22 mph 1012.1mb 46f 47f
3:30 20 30 mph 1012.1mb 46f 47f
3:24 18 28 mph 1012.1mb 46f 48f
3:18 10 21 mph 1011.9mb 46f 49f
3:12 17 28 mph 1011.7mb 46f 50f
3:06 14 22 mph 1011.5mb 46f 51f
3:00 17 26 mph 1011.5mb 46f 51f
2:54 15 21 mph 1011.5mb 46f 51f
2:48 16 20 mph 1011.4mb 46f 51f
2:42 13 22 mph 1011.4mb 46f 51f
2:36 16 32 mph 1011.4mb 46f 51f
2:30 9 14 mph 1011.3mb 46f 51f
2:24 7 10 mph 1011.2mb 46f 50f
2:18 7 13 mph 1011.2mb 46f 50f
2:12 10 15 mph 1011.2mb 46f 50f
2:06 6 9 mph 1011.2mb 46f 51f
2:00 6 18 mph 1011.1mb 46f 51f
1:54 8 14 mph 1011.1mb 46f 51f
1:48 9 15 mph 1011.1mb 46f 51f
1:42 11 16 mph 1011.2mb 46f 50f
1:36 13 20 mph 1011.2mb 46f 50f
1:30 14 22 mph 1011.2mb 46f 50f
1:24 15 22 mph 1011.2mb 46f 50f
1:18 21 29 mph 1011.2mb 46f 50f
1:12 13 22 mph 1011.1mb 46f 51f
1:06 11 23 mph 1011mb 46f 51f
1:00 13 22 mph 1011mb 46f 52f
12:54 11 16 mph 1011mb 46f 52f
12:48 7 10 mph 1010.9mb 46f 51f
12:42 7 13 mph 1010.9mb 46f 51f
12:36 10 15 mph 1010.9mb 46f 51f
12:30 11 16 mph 1010.8mb 46f 51f
12:24 11 18 mph 1010.8mb 46f 51f
12:18 10 18 mph 1010.8mb 46f 51f
12:12 11 18 mph 1010.8mb 46f 51f
12:06 15 22 mph 1010.7mb 46f 51f
12:00 9 13 mph 1010.5mb 46f 51f
11:54 6 11 mph 1010.5mb 46f 51f
11:48 7 9 mph 1010.4mb 46f 51f
11:42 5 14 mph 1010.3mb 46f 50f
11:36 7 11 mph 1010.3mb 46f 50f
11:30 6 9 mph 1010.3mb 46f 49f
11:24 7 10 mph 1010.2mb 46f 49f
11:18 8 14 mph 1010.1mb 46f 49f
11:12 11 14 mph 1010mb 46f 50f
11:06 9 13 mph 1009.8mb 46f 51f
11:00 8 13 mph 1009.6mb 46f 51f
10:54 10 14 mph 1009.6mb 46f 51f
10:48 8 13 mph 1009.6mb 46f 51f
10:42 5 7 mph 1009.7mb 46f 51f
10:36 5 6 mph 1009.6mb 46f 50f
10:30 2 6 mph 1009.7mb 46f 49f
10:24 5 6 mph 1009.6mb 46f 49f
10:18 5 7 mph 1009.6mb 46f 48f
10:12 3 6 mph 1009.6mb 46f 48f
10:06 5 7 mph 1009.4mb 46f 48f
10:00 5 7 mph 1009.4mb 46f 47f
9:54 5 6 mph 1009.3mb 46f 47f
9:48 2 3 mph 1009.1mb 46f 47f
9:42 3 6 mph 1009mb 46f 47f
9:36 5 6 mph 1009mb 46f 47f
9:30 6 7 mph 1009mb 46f 47f
9:24 3 5 mph 1008.8mb 46f 47f
9:18 6 7 mph 1008.8mb 46f 47f
9:12 5 6 mph 1008.8mb 46f 47f
9:06 2 6 mph 1008.7mb 46f 47f
9:00 2 5 mph 1008.8mb 46f 47f
8:54 5 6 mph 1008.8mb 46f 47f
8:48 6
mph
1008.8mb 46f 47f
8:42 5 7 mph 1008.8mb 46f 47f
8:36 6 7 mph 1008.8mb 46f 47f
8:30 5 6 mph 1008.7mb 46f 47f
8:24 5 6 mph 1008.7mb 46f 46f
8:18 5 7 mph 1008.7mb 46f 46f
8:12 6 7 mph 1008.6mb 46f 46f
8:06 5 8 mph 1008.6mb 46f 46f
8:00 6 8 mph 1008.6mb 46f 46f
7:54 3 7 mph 1008.6mb 46f 46f
7:48 1 6 mph 1008.5mb 46f 46f
7:42 3 6 mph 1008.5mb 46f 46f
7:36 2 7 mph 1008.4mb 46f 46f
7:30 6 7 mph 1008.4mb 46f 46f
7:24 3 5 mph 1008.3mb 46f 46f
7:18 3 5 mph 1008.2mb 46f 46f
7:12 3 6 mph 1008.2mb 46f 46f
7:06 5 7 mph 1008.3mb 46f 46f
7:00 5 6 mph 1008.2mb 46f 46f
6:54 5 7 mph 1008.2mb 46f 46f
6:48 6 7 mph 1008.2mb 46f 46f
6:42 7
mph
1008.2mb 46f 47f
6:36 6 8 mph 1008.2mb 46f 47f
6:30 6 9 mph 1008.1mb 46f 49f
6:24 6 10 mph 1008.1mb 46f 49f
6:18 7 10 mph 1008.1mb 46f 49f
6:12 7 10 mph 1008mb 45f 49f
6:06 9 13 mph 1008mb 45f 49f
6:00 8 13 mph - 45f 49f
5:54 9 13 mph - 45f 49f
5:48 9 11 mph 1008.1mb 45f 49f
5:42 8 10 mph 1008mb 45f 49f
5:36 8 11 mph 1008mb 46f 49f
5:30 9 14 mph 1008mb 46f 50f
5:24 7 11 mph 1008mb 46f 49f
5:18 8 10 mph 1008.1mb 46f 50f
5:12 8 11 mph 1008mb 46f 50f
5:06 5 10 mph 1008mb 46f 49f
5:00 6 8 mph 1008mb 46f 50f
4:54 5 7 mph 1008mb 46f 49f
4:48 6 7 mph 1008mb 46f 49f
4:42 5 7 mph 1008.1mb 46f 48f
4:36 5 7 mph 1008.1mb 46f 47f
4:30 6 7 mph 1008mb 46f 47f
4:24 6 8 mph 1007.8mb 46f 47f
4:18 6 8 mph 1007.9mb 46f 47f
4:12 6 7 mph 1007.8mb 46f 47f
4:06 5 8 mph 1008.1mb 46f 47f
4:00 3 10 mph 1007.8mb 46f 47f
3:54 5 8 mph 1007.8mb 46f 47f
3:48 5 7 mph 1007.9mb 46f 47f
3:42 6 7 mph 1008.1mb 46f 47f
3:36 6 8 mph 1008.2mb 46f 47f
3:30 7 10 mph 1008.2mb 46f 47f
3:24 6 11 mph 1008.2mb 46f 47f
3:18 5 8 mph 1008.4mb 46f 47f
3:12 5 7 mph 1008.3mb 46f 47f
3:06 3 8 mph 1008.3mb 46f 48f
3:00 3 8 mph 1008.6mb 46f 47f
2:54 3 8 mph 1008.6mb 46f 47f
2:48 1 9 mph 1008.7mb 46f 47f
2:42 6 8 mph 1008.8mb 46f 47f
2:36 5 13 mph 1008.8mb 46f 47f
2:30 3 7 mph 1008.9mb 46f 47f
2:24 3 9 mph 1009mb 46f 46f
2:18 2 8 mph 1009mb 46f 46f
2:12 5 9 mph 1009.1mb 46f 47f
2:06 5 13 mph 1009.2mb 46f 46f
2:00 3 9 mph 1009.1mb 46f 46f
1:54 5 9 mph 1009.1mb 46f 46f
1:48 5 10 mph 1009.2mb 46f 46f
1:42 2 9 mph 1009.2mb 46f 46f
1:36 3 6 mph 1009.3mb 46f 46f
1:30 2 7 mph 1009.3mb 46f 47f
1:24 5 9 mph 1009.4mb 46f 47f
1:18 3 6 mph 1009.5mb 46f 47f
1:12 3 6 mph 1009.4mb 46f 47f
1:06 2 3 mph 1009.6mb 46f 47f
1:00 2 3 mph 1009.6mb 46f 47f
12:54 2 5 mph 1009.5mb 46f 47f
12:48 2 6 mph 1009.5mb 46f 47f
12:42 3 5 mph 1009.5mb 46f 47f
12:36 2 5 mph 1009.5mb 46f 47f
12:30 2 6 mph 1009.6mb 46f 47f
12:24 2 5 mph 1009.7mb 46f 47f
12:18 2 6 mph 1009.7mb 46f 46f
12:12 3 5 mph 1009.7mb 46f 46f
12:06 2 5 mph 1009.7mb 46f 46f
12:00 2 3 mph 1009.6mb 46f 46f
jue 03/23 11:54 1 3 mph 1009.6mb 46f 46f
11:48 2 6 mph 1009.6mb 46f 46f
11:42 2 5 mph 1009.6mb 46f 47f
11:36 2 7 mph 1009.6mb 46f 46f
11:30 5 9 mph 1009.7mb 46f 47f
11:24 2 5 mph 1009.7mb 46f 46f
11:18 2 3 mph 1009.7mb 46f 46f
11:12 2 6 mph 1009.8mb 46f 46f
11:06 2 6 mph 1009.7mb 46f 46f
11:00 2 7 mph 1009.7mb 46f 47f
10:54 3 7 mph 1009.7mb 46f 47f
10:48 2 5 mph 1009.7mb 46f -
10:42 3 7 mph 1009.8mb 46f -
10:36 1 5 mph 1009.8mb 46f -
10:30 2 3 mph 1009.8mb 46f 46f
10:24 2 6 mph 1009.9mb 46f 46f
10:18 3 7 mph 1009.9mb 46f 46f
10:12  -  6 mph 1009.9mb 46f 46f
10:06  -  5 mph 1010mb 46f 46f
10:00 2 5 mph 1010.2mb 46f 46f
9:54 2 6 mph 1010.2mb 46f 46f
9:48  -  6 mph 1010.2mb 46f 46f
9:42 2 8 mph 1010.2mb 46f 46f
9:36 2 6 mph 1010.1mb 46f 46f
9:30 3 6 mph 1010.2mb 46f 46f
9:24 2 7 mph 1010.2mb 46f 46f
9:18 2 5 mph 1010.3mb 46f 46f
9:12 1 5 mph 1010.4mb 46f 46f
9:06 2 5 mph 1010.3mb 46f 46f
9:00 3 5 mph 1010.4mb 46f 46f
8:54  -  7 mph 1010.5mb 46f 46f
8:48 2 6 mph 1010.6mb 46f 46f
8:42 5 8 mph 1010.6mb 46f 46f
8:36 3 10 mph 1010.5mb 46f 46f
8:30 2 5 mph 1010.5mb 46f 46f
8:24 2 5 mph 1010.4mb 46f 46f
8:18 1 5 mph 1010.4mb 46f 46f
8:12 3 7 mph 1010.4mb 46f 46f
8:06 2 5 mph 1010.6mb 46f 46f
8:00 2 8 mph 1010.6mb 46f 46f
7:54 3 6 mph 1010.7mb 46f 46f
7:48 1 3 mph 1010.8mb 46f 45f
7:42 1 2 mph 1010.9mb 46f 45f
7:36 1 2 mph 1011mb 46f 45f
7:30 1 2 mph 1011.1mb 46f 45f
7:24  -  2 mph 1011.2mb 46f 46f
7:18 2 3 mph 1011.2mb 46f 46f
7:12 2 3 mph 1011.2mb 46f 46f
7:06  -  3 mph 1011.2mb 46f 46f
7:00 1 3 mph 1011.3mb 46f 46f
6:54  -  2 mph 1011.2mb 46f 46f
6:48 1 3 mph 1011.2mb 46f 46f
6:42  -  3 mph 1011.2mb 46f 46f
6:36 2 5 mph 1011.3mb 46f 46f
6:30  -  2 mph 1011.4mb 46f 46f
6:24 2 5 mph 1011.5mb 46f 46f
6:18  -  3 mph 1011.7mb 46f 46f
6:12 5 6 mph 1011.8mb 46f 47f
6:06  -  6 mph 1012mb 46f 47f
6:00 5 7 mph 1012.1mb 46f 47f
5:54 1 6 mph 1012.2mb 46f 46f
5:48 2 6 mph 1012.4mb 46f 46f
5:42 2 3 mph 1012.4mb 46f 46f
5:36 2 5 mph 1012.6mb 46f 46f
5:30  -  3 mph 1012.7mb 46f 46f
5:24  -  3 mph 1012.8mb 46f 47f
5:18 2 3 mph 1013mb 46f 47f
5:12 2 5 mph 1013.1mb 46f 47f
5:06 2 5 mph 1013.2mb 46f 47f
5:00 2 5 mph 1013.3mb 46f 47f
4:54 3 9 mph 1013.5mb 46f 47f
4:48 7 9 mph 1013.6mb 46f 48f
4:42 5 7 mph 1013.7mb 46f 48f
4:36 6 10 mph 1013.6mb 46f 49f
4:30 3 6 mph 1013.7mb 46f 49f
4:24 5 6 mph 1013.7mb 45f 49f
4:18 6 7 mph 1013.8mb 46f 49f
4:12 2 6 mph 1013.8mb 45f 49f
4:06 6 8 mph 1013.7mb 45f 49f
4:00 5 8 mph 1013.6mb 45f 50f
3:54 5 9 mph 1013.6mb 45f 50f
3:48 5 8 mph 1013.6mb 45f 51f
3:42 2 6 mph 1013.6mb 45f 51f
3:36 1 5 mph 1013.6mb 45f 51f
3:30 3 8 mph 1013.6mb 45f 51f
3:24 2 7 mph 1013.6mb 45f 51f
3:18 2 8 mph 1013.7mb 45f 51f
3:12 7 14 mph 1013.6mb 45f 51f
3:06 5 6 mph 1013.7mb 45f 51f
3:00 2 6 mph 1013.7mb 45f 51f
2:54 2 5 mph 1013.7mb 45f 51f
2:48 6 7 mph 1013.9mb 45f 50f
2:42 2 6 mph 1014mb 45f 50f
2:36 2 6 mph 1014.2mb 45f 51f
2:30 1 5 mph 1014.3mb 45f 51f
2:24 2 6 mph 1014.3mb 45f 51f
2:18 1 3 mph 1014.4mb 45f 51f
2:12 1 5 mph 1014.5mb 45f 51f
2:06 1 3 mph 1014.6mb 45f 51f
2:00 1 3 mph 1014.7mb 45f 50f
1:54 1 3 mph 1014.8mb 45f 50f
1:48 2 6 mph 1014.9mb 45f 50f
1:42 2 3 mph 1015.1mb 45f 50f
1:36  -  3 mph 1015.1mb 45f 50f
1:30 1 8 mph 1015.1mb 45f 50f
1:24 3 6 mph 1015.2mb 45f 49f
1:18 1 6 mph 1015.4mb 45f 49f
1:12 1 6 mph 1015.5mb 45f 49f
1:06 3 6 mph 1015.5mb 45f 49f
1:00 2 6 mph 1015.7mb 45f 49f
12:54 2 3 mph 1015.8mb 45f 49f
12:48 3 10 mph 1016mb 45f 49f
12:42 6 14 mph 1016mb 45f 49f
12:36 8 14 mph 1016mb 45f 49f
12:30 10 15 mph 1016mb 45f 48f
12:24 8 13 mph 1016mb 45f 49f
12:18 8 15 mph 1016.2mb 45f 49f
12:12 9 14 mph 1016.2mb 45f 49f
12:06 5 11 mph 1016.2mb 45f 49f
12:00 2 5 mph 1016.2mb 45f 49f
11:54 2 6 mph 1016.3mb 45f 49f
11:48 1 8 mph 1016.5mb 45f 48f
11:42  -  3 mph 1016.4mb 45f 49f
11:36 3 6 mph 1016.4mb 45f 48f
11:30 3 7 mph 1016.5mb 45f 48f
11:24 2 6 mph 1016.6mb 45f 49f
11:18 2 7 mph 1016.6mb 45f 48f
11:12 2 6 mph 1016.7mb 45f 48f
11:06 5 7 mph 1016.8mb 45f 47f
11:00 1 6 mph 1016.9mb 45f 47f
10:54 3 9 mph 1016.9mb 45f 47f
10:48 3 8 mph 1017mb 45f 47f
10:42 3 10 mph 1017mb 45f 47f
10:36 5 14 mph 1017.1mb 45f 47f
10:30 7 14 mph 1017.1mb 45f 47f
10:24 7 11 mph 1017.3mb 45f 46f
10:18 5 8 mph 1017.3mb 45f 46f
10:12 1 8 mph 1017.4mb 45f 46f
10:06 1 6 mph 1017.4mb 45f 46f
10:00 5 7 mph 1017.4mb 45f 45f
9:54 2 7 mph 1017.5mb 45f 45f
9:48 3 8 mph 1017.6mb 45f 44f
9:42 5 7 mph 1017.6mb 45f 44f
9:36 6 9 mph 1017.6mb 45f 44f
9:30 2 8 mph 1017.6mb 45f 44f
9:24 3 5 mph 1017.7mb 45f 44f
9:18 5 7 mph 1017.7mb 45f 44f
9:12 3 7 mph 1017.8mb 45f 44f
9:06 3 7 mph 1017.9mb 45f 44f
9:00 1 3 mph 1017.9mb 45f 44f
8:54  -  3 mph 1017.9mb 45f 44f
8:48  -  5 mph 1018mb 45f 43f
8:42 3 6 mph 1017.9mb 45f 43f
8:36  -  3 mph 1017.9mb 45f 43f
8:30 3 6 mph 1018mb 45f 43f
8:24  -  5 mph 1018mb 45f 43f
8:18 2 6 mph 1018mb 45f 42f
8:12 1 3 mph 1018mb 45f 42f
8:06 1 6 mph 1017.9mb 45f 42f
8:00 1 2 mph 1017.9mb 45f 42f
7:54 2 3 mph 1017.9mb 45f 42f
7:48 2 6 mph 1017.9mb 45f 42f
7:42  -  2 mph 1017.8mb 45f 42f
7:36 2 9 mph 1017.8mb 45f 42f
7:30 2 7 mph 1017.9mb 45f 42f
7:24 1 3 mph 1017.9mb 45f 42f
7:18 1 5 mph 1017.9mb 45f 42f
7:12 3 7 mph 1018mb 45f 43f
7:06 3 7 mph 1018.1mb 45f 43f
7:00 7 9 mph 1018.2mb 45f 43f
6:54 6 9 mph 1018.2mb 45f 43f
6:48 6 8 mph 1018.3mb 45f 43f
6:42 3 8 mph 1018.4mb 45f 43f
6:36 5 8 mph 1018.4mb 45f 43f
6:30 3 7 mph 1018.4mb 45f 43f
6:24 3 7 mph 1018.4mb 45f 43f
6:18 5 7 mph 1018.5mb 45f 43f
6:12 6 9 mph 1018.4mb 45f 43f
6:06 2 5 mph 1018.4mb 45f 42f
6:00 2 5 mph 1018.4mb 45f 42f
5:54 3 6 mph 1018.4mb 45f 43f
5:48 3 8 mph 1018.4mb 45f 42f
5:42 3 8 mph 1018.3mb 45f 43f
5:36 2 6 mph 1018.3mb 45f 43f
5:30 2 5 mph 1018.4mb 45f 43f
5:24 2 7 mph 1018.4mb 45f 43f
5:18 5 8 mph 1018.5mb 45f 43f
5:12 3 6 mph 1018.5mb 45f 43f
5:06 2 6 mph 1018.5mb 45f 43f
5:00 2 6 mph 1018.5mb 45f 43f
4:54 3 5 mph 1018.5mb 45f 43f
4:48 3 5 mph 1018.5mb 45f 43f
4:42 2 5 mph 1018.5mb 45f 43f
4:36 2 5 mph 1018.5mb 45f 43f
4:30 2 5 mph 1018.5mb 45f 43f
4:24 3 5 mph 1018.5mb 45f 43f
4:18 1 5 mph 1018.6mb 45f 43f
4:12 5 6 mph 1018.7mb 45f 43f
4:06 3 7 mph 1018.6mb 45f 43f
4:00 2 3 mph 1018.7mb 45f 42f
3:54 1 3 mph 1018.8mb 45f 42f
3:48 5 6 mph 1018.9mb 45f 42f
3:42 5 6 mph 1018.9mb 45f 42f
3:36 5 6 mph 1018.9mb 45f 42f
3:30 1 2 mph 1018.9mb 45f 42f
3:24 1 3 mph 1018.9mb 45f 42f
3:18 3 7 mph 1018.9mb 45f 42f
3:12 6 8 mph 1019mb 45f 43f
3:06 5 9 mph 1018.9mb 45f 43f
3:00 6 8 mph 1018.9mb 45f 43f
2:54 8 11 mph 1018.9mb 45f 43f
2:48 9 13 mph 1019mb 45f 43f
2:42 8 9 mph 1019.1mb 45f 43f
2:36 9 11 mph 1019.2mb 45f 43f
2:30 8 10 mph 1019.1mb 45f 43f
2:24 8
mph
1019.1mb 45f 43f
2:18 7 9 mph 1019.1mb 45f 43f
2:12 7 11 mph 1019mb 45f 43f
2:06 8 10 mph 1019mb 45f 43f
2:00 7 9 mph 1019.1mb 45f 43f
1:54 8 11 mph 1019.1mb 45f 43f
1:48 8 9 mph 1019mb 45f 43f
1:42 8 10 mph 1019.1mb 45f 43f
1:36 7 8 mph 1019.1mb 45f 43f
1:30 6 8 mph 1019.1mb 45f 43f
1:24 6 9 mph 1019.1mb 45f 43f
1:18 7 9 mph 1019.1mb 45f 43f
1:12 8 10 mph 1019.1mb 45f 43f
1:06 7 10 mph 1019.2mb 45f 43f
1:00 7 10 mph 1019.2mb 45f 43f
12:54 8 10 mph 1019.3mb 45f 43f
12:48 9 11 mph 1019.3mb 45f 43f
12:42 9 11 mph 1019.4mb 45f 43f
12:36 9 11 mph 1019.3mb 45f 43f
12:30 8 10 mph 1019.3mb 45f 43f
12:24 7 9 mph 1019.3mb 45f 44f
12:18 7 13 mph 1019.3mb 45f 44f
12:12 9 15 mph 1019.4mb 45f 44f
12:06 9 11 mph 1019.3mb 45f 44f
12:00 7 10 mph 1019.2mb 45f 44f
mié 03/22 11:54 8 10 mph 1019.1mb 45f 44f
11:48 8 13 mph 1019.1mb 45f -
11:42 8 11 mph 1019.2mb 45f -
11:36 9 13 mph 1019.1mb 45f -
11:30 9 14 mph 1019mb 45f 44f
11:24 9 13 mph 1019.1mb 45f 44f
11:18 8 11 mph 1019mb 45f 44f
11:12 8 11 mph 1019.1mb 45f 44f
11:06 8 10 mph 1019mb 45f 44f
11:00 8 11 mph 1018.9mb 45f 44f
10:54 8 10 mph 1018.8mb 45f 44f
10:48 8 10 mph 1018.8mb 45f -